COSMOS 2115

Satellite information

Favourite Embed

Satellite Type and Status

PAYLOADIN ORBIT

Key statistics

Satellite COSMOS 2115 at a glance.

Uptime

12729

Days in orbit

Revolutions

≈ 12.6

Per day

Orbit

LEO

Low Earth Orbit

Inclination

82.6

Latest

Satellite identification and parameters

Extended collection of information and parameters for COSMOS 2115.

Object identification

Identified? True

Debris? False

Object name: COSMOS 2115

International designator: 1990-114B

Object number (NORAD): 21029

Object ID (CCSDS): 21029

Country: COMMONWEALTH OF INDEPENDENT STATES (CIS)

Current information (Y/N): Y

RCS size: LARGE

Orbital parameters

Period: 113.967 minutes

Inclination: 82.5724 deg

SMA: 7786.562 km

Apoapsis: 1411.328 km

Periapsis: 1405.527 km

RAAN: 1.1542 deg

Eccentricy: 0.00037249

Argument of periapsis: 32.2071 deg

Mean anomaly: 141.0321 deg

Mean motion: 12.63525844 rev/day

Mean motion (dot): 0.00000026 rev/day2

B* drag term: 0.000082564782 1/REarth

Two-line elements (TLE)

Creation date: Oct. 27, 2025, 2:46 a.m.

Reference frame: TEME

Reference center: EARTH

Epoch: Oct. 26, 2025, 10 p.m. UTC

TLE line 0: 0 COSMOS 2115

TLE line 1: 1 21029U 90114B 25299.91716918 .00000026 00000-0 82565-4 0 9996

TLE line 2: 2 21029 82.5724 1.1542 0003725 32.2071 141.0321 12.63525844606946

Live tracking on map

Real-time ground track for satellite COSMOS 2115.

In-orbit conjunctions

A list of the most updated potential collisions computed for object COSMOS 2115.

Target Orbit TCA Probability of collision Miss distance Type
THORAD DELTA 1 DEB SSO 2024-12-24 13:46:46 0.0001835077 386.0 (m) DEBRIS

Associated space launch

Second generation store-dump military communications satellite

COSMOS 2115 was lifted into orbit during the mission ‘Tsiklon-3 | Strela-3 55 to 60’, on board a Tsiklon-3 space rocket.

The launch took place on Dec. 22, 1990, 7:28 a.m. from 32/2.

For more information about the launch, click the button.

Launch to space Tsiklon-3 | Strela-3 55 to 60
Tsiklon-3 | Strela-3 55 to 60

Agency: N/A

Status: Launch Successful

Launch date: Dec. 22, 1990, 7:28 a.m. UTC

Rocket: Tsiklon-3

Launch pad: 32/2

Location: Plesetsk Cosmodrome, Russian Federation

...

Latest news about this satellite

There are no fresh news available about this satellite. Check back as we update our databases every day.


Newsletter sign-up

Weekly statistics, charts and insights to help you stay on top of the space industry.